Weather History for KTPA - January, 2013

Change the Weather History Date:

Thursday, January 17, 2013

  Actual Average Record
Temperature  
Mean Temperature 62 °F 60 °F  
Max Temperature 71 °F 70 °F 82 °F (1943)
Min Temperature 53 °F 51 °F 29 °F (1893)
Degree Days  
Heating Degree Days 3 6  
Month to date heating degree days 12 102  
Since 1 July heating degree days 138 285  
Cooling Degree Days 0 2  
Month to date cooling degree days 92 32  
Year to date cooling degree days 92 32  
Growing Degree Days 13 (Base 50)    
Moisture  
Dew Point 58 °F    
Average Humidity 74    
Maximum Humidity 93    
Minimum Humidity 55    
Precipitation  
Precipitation 0.03 in 0.06 in 2.17 in (2011)
Month to date precipitation 0.49 1.15  
Year to date precipitation 0.49 1.15  
Sea Level Pressure  
Sea Level Pressure 30.08 in    
Wind  
Wind Speed 11 mph (WNW)    
Max Wind Speed 22 mph    
Max Gust Speed 30 mph    
Visibility 8 miles    
Events Rain    
T = Trace of Precipitation, MM = Missing Value Source: NWS Daily Summary

Daily Weather History Graph

Daily Weather History Graph

Search for Another Location

Airport or City:

Trip Planner

Search our weather history database for the weather conditions in past years. The results will help you decide how hot, cold, wet, or windy it might be!

Date:

Astronomy

Jan. 17, 2013 Rise Set
Actual Time 7:22 AM EST 5:58 PM EST
Civil Twilight 6:57 AM EST 6:23 PM EST
Nautical Twilight 6:28 AM EST 6:52 PM EST
Astronomical Twilight 6:00 AM EST 7:20 PM EST
Moon 11:05 AM EST (1/17) No Moon Set
Length of Visible Light 11h 26m
Length of Day
10h 36m
Waxing Crescent, 37% of the Moon is Illuminated
Jan 17
Waxing Crescent
Jan 18
First Quarter
Jan 26
Full
Feb 3
Last Quarter
Feb 10
New

Hourly Weather History & Observations

Time (EST) Temp. Dew Point Humidity Pressure Visibility Wind Dir Wind Speed Gust Speed Precip Events Conditions
12:53 AM 66.0 °F 63.0 °F 90% 30.04 in 10.0 mi Calm Calm - N/A   Clear
1:53 AM 66.0 °F 63.0 °F 90% 30.04 in 10.0 mi Calm Calm - N/A   Clear
2:53 AM 66.9 °F 64.0 °F 90% 30.03 in 10.0 mi Calm Calm - N/A   Clear
3:53 AM 66.9 °F 64.9 °F 93% 30.03 in 10.0 mi South 3.5 mph - N/A   Clear
4:53 AM 66.9 °F 64.9 °F 93% 30.02 in 10.0 mi SE 4.6 mph - N/A   Scattered Clouds
5:53 AM 66.2 °F 64.4 °F 94% 30.01 in 9.0 mi SE 5.8 mph - N/A   Partly Cloudy
6:53 AM 68.0 °F 66.0 °F 93% 30.02 in 10.0 mi South 6.9 mph - N/A   Partly Cloudy
7:53 AM 69.1 °F 66.0 °F 90% 30.04 in 10.0 mi South 8.1 mph - N/A   Scattered Clouds
8:53 AM 70.0 °F 66.9 °F 90% 30.05 in 10.0 mi South 9.2 mph - N/A   Mostly Cloudy
9:53 AM 71.1 °F 68.0 °F 90% 30.07 in 10.0 mi SSW 8.1 mph - N/A   Overcast
9:57 AM 69.8 °F 66.2 °F 88% 30.07 in 10.0 mi West 18.4 mph 25.3 mph N/A   Overcast
10:03 AM 68.0 °F 64.4 °F 88% 30.08 in 2.0 mi West 18.4 mph 26.5 mph 0.00 in Rain Light Rain
10:10 AM 66.2 °F 64.4 °F 94% 30.08 in 4.0 mi West 18.4 mph 25.3 mph 0.01 in Rain Light Rain
10:26 AM 66.2 °F 64.4 °F 94% 30.09 in 8.0 mi WNW 18.4 mph 26.5 mph 0.01 in   Overcast
10:53 AM 66.9 °F 63.0 °F 87% 30.09 in 6.0 mi WNW 15.0 mph 24.2 mph 0.01 in   Overcast
10:58 AM 66.2 °F 62.6 °F 88% 30.09 in 2.0 mi WNW 16.1 mph 21.9 mph 0.00 in Rain Light Rain
11:13 AM 66.2 °F 62.6 °F 88% 30.09 in 2.0 mi West 12.7 mph - 0.01 in Rain Light Rain
11:22 AM 66.2 °F 64.4 °F 94% 30.09 in 2.0 mi West 15.0 mph 19.6 mph 0.02 in Rain Light Rain
11:44 AM 64.4 °F 62.6 °F 94% 30.08 in 9.0 mi WNW 16.1 mph 21.9 mph 0.02 in   Overcast
11:53 AM 66.0 °F 62.1 °F 87% 30.08 in 10.0 mi WNW 16.1 mph 20.7 mph 0.02 in   Overcast
12:34 PM 64.4 °F 60.8 °F 88% 30.07 in 2.0 mi WNW 13.8 mph 21.9 mph 0.00 in Rain Light Rain
12:53 PM 63.0 °F 60.1 °F 90% 30.07 in 2.0 mi West 16.1 mph 21.9 mph 0.00 in Rain Light Rain
1:02 PM 62.6 °F 59.0 °F 88% 30.07 in 2.0 mi WNW 16.1 mph 27.6 mph 0.00 in Rain Light Rain
1:18 PM 62.6 °F 59.0 °F 88% 30.06 in 2.0 mi WNW 15.0 mph 24.2 mph 0.00 in   Overcast
1:39 PM 60.8 °F 57.2 °F 88% 30.06 in 2.0 mi WNW 16.1 mph 27.6 mph 0.00 in   Overcast
1:47 PM 60.8 °F 57.2 °F 88% 30.06 in 6.0 mi WNW 13.8 mph 27.6 mph 0.00 in   Overcast
1:48 PM 61.0 °F 57.0 °F 87% 30.06 in 7.0 mi WNW 17.3 mph 27.6 mph 0.00 in   Overcast
1:51 PM 60.8 °F 57.2 °F 88% 30.06 in 6.0 mi WNW 15.0 mph 27.6 mph N/A   Overcast
1:53 PM 60.8 °F 57.2 °F 88% 30.06 in 4.0 mi WNW 15.0 mph 25.3 mph N/A   Overcast
2:06 PM 60.8 °F 55.4 °F 82% 30.06 in 6.0 mi WNW 15.0 mph 25.3 mph N/A   Overcast
2:19 PM 60.8 °F 55.4 °F 82% 30.07 in 4.0 mi WNW 16.1 mph 25.3 mph N/A   Overcast
2:24 PM 59.0 °F 55.4 °F 88% 30.07 in 6.0 mi WNW 17.3 mph 27.6 mph N/A   Overcast
2:53 PM 61.0 °F 52.0 °F 72% 30.07 in 6.0 mi West 18.4 mph 27.6 mph N/A   Haze
3:53 PM 61.0 °F 48.9 °F 64% 30.08 in 10.0 mi West 20.7 mph 28.8 mph N/A   Overcast
4:53 PM 61.0 °F 48.0 °F 62% 30.09 in 10.0 mi WNW 15.0 mph - N/A   Overcast
5:53 PM 60.1 °F 45.0 °F 57% 30.10 in 10.0 mi WNW 16.1 mph 24.2 mph N/A   Mostly Cloudy
6:53 PM 60.1 °F 46.9 °F 62% 30.11 in 10.0 mi WNW 16.1 mph 26.5 mph N/A   Mostly Cloudy
7:53 PM 59.0 °F 46.9 °F 64% 30.14 in 10.0 mi WNW 13.8 mph 24.2 mph N/A   Overcast
8:53 PM 57.9 °F 46.0 °F 65% 30.15 in 10.0 mi WNW 13.8 mph 23.0 mph N/A   Overcast
9:30 PM 57.2 °F 46.4 °F 67% 30.16 in 10.0 mi NW 17.3 mph 23.0 mph N/A   Mostly Cloudy
9:53 PM 55.9 °F 45.0 °F 67% 30.16 in 10.0 mi WNW 16.1 mph 26.5 mph N/A   Mostly Cloudy
10:11 PM 55.4 °F 44.6 °F 67% 30.16 in 10.0 mi NW 15.0 mph 26.5 mph N/A   Overcast
10:53 PM 55.9 °F 44.1 °F 64% 30.17 in 10.0 mi NW 12.7 mph 23.0 mph N/A   Overcast
11:53 PM 53.1 °F 42.1 °F 66% 30.17 in 10.0 mi NW 15.0 mph 27.6 mph N/A   Mostly Cloudy